Location: La Estación
(39.9833°N, 3.9500°W)
Time: 16:31:53
(UTC+00:00)

Cosmos 2123 Rocket - Pass Details

Date: 14 June 2025
Orbit: 960 x 992 km, 82.9° (Epoch: 19 July)

Event Time Altitude Azimuth Distance (km) Brightness Sun altitude
Exits shadow 22:11:21 21° 198° (SSW) 2,051 5.3 -20.3°
Maximum altitude 22:15:43 71° 278° (W) 1,040 4.2 -20.8°
Drops below altitude 10° 22:21:58 10° 3° (N) 2,734 7.2 -21.3°
Sets 22:24:30 0° 5° (N) 3,680 7.9 -21.6°
